Flag Weather past 2 weeks in Oldenburg, Lower Saxony, Germany

Now
36 °F

Clear.


Feels Like: 26 °F
Forecast: 33 / 40 °F
Wind: 15 mph from Southeast

Location: Bremen Airport

Current Time: Nov 27, 2014 at 4:17:22 AM

Latest Report: Nov 27, 2014 at 3:20 AM


Visibility: 10 mi

Pressure: 29.95 "Hg

Humidity: 87%

Dew point: 32 °F

Location of OldenburgLocation

Historic Weather in Oldenburg — Graph

°F

Oldenburg temperature yesterday

Maximum temperature yesterday: 41 °F (at 12:20 AM)
Minimum temperature yesterday: 37 °F (at 4:20 AM)
Average temperature yesterday: 39 °F

Past Weeks' High & Low Weather Summary

 TemperatureHumidityPressure
High54 °F (Nov 14, 12:20 PM)100% (Nov 12, 7:50 PM)30.39 "Hg (Nov 12, 7:50 PM)
Low30 °F (Nov 21, 6:20 AM)67% (Nov 24, 2:20 PM)29.50 "Hg (Nov 16, 2:20 PM)
Average45 °F90%29.99 "Hg
* Reported Nov 12 3:20 AM — Nov 27 3:20 AM, Oldenburg, Weather by CustomWeather, © 2014

Note: Actual official high and low records may vary slightly from our data, if they occured in-between our weather recording intervals... More about our weather records

Advertising

Oldenburg weather history for previous 24 hours

 ConditionsComfort  
Time TempWeatherWind HumidityBarometerVisibility
3:20 AM
Nov 27
36 °FClear.15 mph87%29.95 "Hg10 mi
2:50 AM36 °FClear.13 mph87%29.95 "Hg10 mi
2:20 AM36 °FClear.14 mph87%29.95 "Hg10 mi
1:50 AM37 °FPassing clouds.14 mph81%29.98 "HgN/A
1:20 AM37 °FClear.15 mph81%29.98 "Hg10 mi
12:50 AM37 °FClear.15 mph87%29.98 "Hg10 mi
12:20 AM39 °FPassing clouds.15 mph81%29.98 "HgN/A
11:50 PM
Nov 26
39 °FClear.15 mph81%30.01 "Hg10 mi
11:20 PM39 °FClear.14 mph87%30.01 "Hg10 mi
10:50 PM39 °FClear.16 mph87%30.01 "Hg10 mi
10:20 PM39 °FPassing clouds.17 mph87%30.01 "HgN/A
9:50 PM39 °FPassing clouds.15 mph87%30.01 "HgN/A
9:20 PM39 °FPassing clouds.14 mph87%30.04 "HgN/A
8:50 PM37 °FPassing clouds.14 mph93%30.04 "HgN/A
8:20 PM39 °FPassing clouds.15 mph87%30.04 "HgN/A
7:50 PM39 °FPassing clouds.14 mph87%30.04 "HgN/A
7:20 PM39 °FPassing clouds.14 mph87%30.04 "HgN/A
6:50 PM39 °FPassing clouds.12 mph87%30.04 "HgN/A
6:20 PM39 °FPassing clouds.14 mph87%30.04 "HgN/A
5:50 PM39 °FPassing clouds.12 mph87%30.04 "HgN/A
5:20 PM39 °FClear.13 mph87%30.04 "Hg10 mi
4:50 PM39 °FClear.13 mph81%30.04 "Hg10 mi
4:20 PM39 °FClear.12 mph81%30.07 "Hg10 mi
3:50 PM39 °FPartly sunny.10 mph87%30.07 "HgN/A
3:20 PM41 °FPartly sunny.12 mph81%30.07 "HgN/A
2:50 PM41 °FPassing clouds.13 mph81%30.07 "HgN/A
2:20 PM41 °FPassing clouds.9 mph81%30.07 "HgN/A
1:50 PM41 °FPassing clouds.15 mph81%30.09 "HgN/A
1:20 PM41 °FPartly sunny.15 mph81%30.09 "HgN/A
12:50 PM41 °FPartly sunny.14 mph81%30.09 "HgN/A
12:20 PM41 °FScattered clouds.16 mph81%30.12 "HgN/A
11:50 AM41 °FScattered clouds.14 mph81%30.12 "HgN/A
11:20 AM39 °FPartly sunny.16 mph87%30.12 "HgN/A
10:50 AM39 °FPartly sunny.17 mph87%30.15 "HgN/A
10:20 AM39 °FPartly sunny.13 mph87%30.15 "HgN/A
9:50 AM39 °FPartly sunny.13 mph87%30.15 "HgN/A
9:20 AM37 °FLow clouds.13 mph93%30.15 "HgN/A
8:50 AM37 °FPartly sunny.9 mph93%30.15 "HgN/A
8:20 AM37 °FPartly sunny.13 mph93%30.15 "HgN/A
7:50 AM37 °FPassing clouds.15 mph87%30.18 "HgN/A
7:20 AM37 °FPassing clouds.14 mph93%30.18 "HgN/A
6:50 AM37 °FPassing clouds.13 mph93%30.18 "HgN/A
6:20 AM37 °FLow clouds.13 mph93%30.18 "HgN/A
5:50 AM37 °FLow clouds.14 mph100%30.18 "HgN/A
5:20 AM39 °FLow clouds.10 mph93%30.18 "HgN/A
4:20 AM37 °FPassing clouds.16 mph93%30.18 "HgN/A
Weather by CustomWeather, © 2014

See weather overviewHow to use our weather pages